Wind_Speed
23 24 25 26 27 26 24 23 22 23 23 22 21 21 21 21 21 21 19 18 16 16 15 14 13 13 12 11 10 10 9 8 8 7 7 7 6 6 6 6 6 5 5 5 5 5 5 4 4
24 25 26 26 27 26 24 23 24 25 24 24 23 23 23 23 22 22 21 20 18 17 17 16 15 14 13 13 12 11 10 10 10 9 9 9 8 8 7 7 7 7 7 7 7 7 6 6 6
24 25 26 26 27 26 24 24 25 26 26 26 25 25 24 23 24 24 23 22 21 20 19 18 17 16 16 15 14 13 12 11 11 11 11 11 10 9 9 9 9 9 9 8 8 8 8 8 8
24 26 27 28 27 26 26 27 27 27 27 27 27 27 26 25 25 24 24 23 23 22 21 21 20 19 18 17 16 15 14 14 13 13 12 12 12 11 11 11 10 10 10 10 10 10 10 10 9
26 27 28 28 28 27 27 28 28 28 28 28 28 28 28 27 26 26 25 25 25 24 23 23 22 21 20 19 18 17 17 16 15 15 14 14 13 13 12 12 12 12 12 12 12 12 11 11 11
27 28 29 29 28 28 28 30 29 30 30 30 29 29 29 28 27 27 27 27 26 25 25 24 24 23 22 21 20 20 19 18 17 17 16 15 15 14 14 14 13 13 13 13 13 12 13 13 13
28 29 29 29 29 30 29 31 31 32 31 32 31 31 31 29 29 29 29 28 28 27 27 26 26 25 24 23 22 21 21 20 19 18 18 17 17 16 15 15 15 15 15 15 14 14 14 14 14
28 29 29 29 30 31 31 32 32 33 33 33 32 33 32 30 31 30 30 30 29 28 28 28 27 26 26 25 24 23 22 22 21 20 19 19 19 18 17 17 17 17 17 17 16 16 16 16 16
28 29 29 29 31 31 31 32 33 34 35 34 34 34 32 32 32 31 31 31 30 30 29 29 29 28 28 27 26 25 25 24 23 22 21 21 21 20 19 19 19 19 18 18 18 18 18 18 18
28 29 29 30 31 31 31 32 33 34 35 35 35 35 34 33 33 32 32 32 31 31 30 30 30 30 29 28 28 27 26 26 25 24 23 23 23 23 22 21 21 21 20 20 20 20 20 20 20
29 29 29 30 31 32 32 32 33 34 35 35 36 36 35 36 35 34 33 33 33 32 31 31 31 31 31 30 29 28 28 27 27 26 25 25 25 25 24 23 23 23 22 22 22 22 22 22 22
29 30 31 31 32 33 33 33 34 35 35 35 35 36 37 38 36 35 35 34 34 33 33 32 32 32 33 32 31 30 30 29 28 28 28 27 27 27 26 25 25 25 25 25 25 24 24 24 24
29 29 30 31 33 33 33 34 35 35 35 36 36 37 37 39 39 38 36 36 35 35 34 34 34 34 33 33 33 32 31 31 30 30 30 29 29 29 28 28 27 27 27 27 27 27 26 27 27
30 30 31 31 32 33 34 34 35 36 36 36 37 38 38 39 40 40 38 37 37 37 36 35 35 35 34 34 33 33 33 33 33 32 32 31 31 31 30 30 30 29 29 29 29 29 29 29 29
29 30 31 32 32 33 35 36 36 36 37 37 38 39 39 40 41 41 39 38 38 38 37 36 36 36 34 34 34 33 34 33 33 33 34 34 34 33 33 33 32 32 32 32 32 31 31 31 31
29 30 31 30 32 32 35 35 35 36 36 37 36 37 39 40 40 41 40 40 40 39 39 38 37 37 36 35 34 34 34 34 34 34 34 34 34 34 35 34 34 34 35 34 34 34 34 34 34
30 30 30 30 31 31 33 34 34 35 36 36 35 36 37 39 40 40 40 40 41 40 40 39 38 37 37 36 36 35 36 36 36 36 36 35 35 35 35 35 35 36 36 36 36 36 36 36 36
28 29 30 30 30 30 31 32 32 33 34 35 35 34 37 39 40 40 40 40 41 40 40 39 39 38 38 37 37 37 37 38 38 38 38 37 37 37 36 35 36 36 37 37 37 37 37 38 37
27 29 29 29 30 30 30 30 31 32 33 34 34 34 35 37 38 39 40 41 40 40 40 40 40 39 38 39 38 38 39 39 40 39 39 39 38 38 38 37 36 37 37 37 37 37 38 38 38
26 28 28 29 29 30 30 30 30 30 31 32 33 34 35 35 36 37 39 40 40 40 40 40 41 40 39 39 39 39 39 40 40 41 40 40 39 39 38 38 38 38 38 38 38 39 39 39 39
26 27 27 28 29 30 31 30 29 29 31 31 32 33 34 36 37 37 38 39 41 41 41 41 41 40 39 39 39 39 39 40 41 41 41 41 40 40 40 39 39 39 39 40 40 40 40 40 40
25 25 27 28 29 29 29 30 27 28 29 30 31 33 34 36 37 37 38 39 40 40 41 41 41 40 40 39 39 39 40 40 40 41 42 42 41 41 41 41 41 41 41 41 41 41 42 42 42
24 25 25 27 28 29 28 30 28 28 28 29 31 32 33 36 37 38 38 39 40 40 41 42 42 42 41 40 39 39 39 40 41 41 42 42 42 42 42 43 43 43 43 43 44 44 45 45 45
24 24 24 26 27 28 27 29 29 28 28 29 30 31 33 35 36 37 38 39 40 41 41 42 42 42 43 42 41 41 41 41 41 41 42 43 43 43 43 44 44 44 44 45 45 46 46 46 46
22 22 22 24 26 27 26 27 28 27 28 28 29 30 30 31 34 36 38 39 40 41 42 43 43 43 44 44 43 43 43 43 43 42 43 44 44 44 44 45 45 46 46 46 47 47 47 48 48
20 21 22 23 25 25 25 27 27 27 27 27 28 29 30 30 32 34 36 38 40 42 42 43 44 45 44 45 45 44 44 45 44 43 43 44 44 45 46 46 47 47 47 47 47 48 48 49 50
20 20 20 22 24 25 25 26 26 26 27 28 28 29 30 30 30 32 35 37 39 41 42 43 43 44 44 45 45 45 45 45 44 45 45 46 46 46 46 47 47 47 48 49 49 49 50 51 51
20 20 20 21 22 24 24 25 25 25 26 26 27 28 28 30 31 32 33 34 36 38 41 42 43 43 44 44 44 45 45 46 46 47 47 47 47 47 48 49 49 49 49 49 49 49 50 50 50
20 20 21 22 23 23 24 23 22 22 24 25 27 28 29 30 31 32 32 34 35 37 39 41 42 43 44 44 45 45 46 47 48 49 48 48 48 49 50 50 50 50 50 50 50 50 50 50 49
21 21 21 22 22 23 25 23 21 22 22 24 25 26 28 29 29 30 31 32 33 35 36 38 40 41 42 43 44 46 46 47 48 49 48 48 49 50 49 50 50 50 50 50 51 51 50 49 48
Wind_Direction
249 247 246 246 246 247 247 248 248 246 247 247 246 245 244 243 244 246 245 242 239 237 236 237 238 237 235 236 238 240 244 247 249 252 251 253 255 255 256 255 255 252 250 244 242 245 243 249 261
249 246 245 244 244 246 247 249 248 247 246 245 245 244 243 243 245 246 245 242 241 239 238 239 240 239 237 238 240 242 245 248 251 253 255 258 260 257 260 261 259 258 255 252 249 249 252 257 263
248 246 244 244 244 245 246 247 247 247 245 244 244 244 243 242 244 245 245 244 242 240 240 240 240 240 240 241 242 245 246 249 250 252 255 259 263 262 262 263 260 261 259 255 254 254 255 260 265
247 246 245 245 245 245 246 246 247 247 245 243 243 243 242 242 244 245 245 245 244 242 241 241 241 241 242 242 244 246 248 250 252 254 257 260 262 263 264 264 261 261 261 258 257 257 258 260 264
248 247 247 248 248 247 246 247 247 246 245 244 243 243 243 244 243 244 245 245 244 242 242 242 243 244 244 243 245 247 249 252 254 256 258 260 261 261 263 264 263 262 262 261 259 260 260 260 264
250 249 249 250 249 248 248 247 246 247 245 244 243 243 243 243 242 242 243 245 245 243 242 243 244 245 246 246 247 248 250 253 255 257 258 261 262 262 262 263 263 262 261 261 260 260 260 261 263
252 250 250 250 250 248 248 247 246 247 246 245 244 244 243 242 242 242 242 244 245 244 243 242 243 245 247 248 248 250 251 254 256 257 259 260 262 263 264 264 263 261 260 261 260 259 261 262 265
254 252 250 250 250 250 248 248 246 247 247 246 245 244 244 244 243 242 242 244 245 244 243 243 243 245 246 247 247 249 251 254 255 257 258 259 260 262 263 265 264 263 261 260 261 262 263 264 266
254 253 252 251 251 252 250 250 247 248 248 245 245 244 244 244 244 242 242 244 245 245 244 244 244 245 246 246 247 249 251 253 254 255 258 259 260 261 263 266 265 265 264 263 262 263 265 266 267
255 255 255 253 252 253 252 251 249 247 246 245 244 243 243 243 243 243 242 243 245 245 244 244 245 245 247 248 248 250 251 252 253 255 257 258 260 260 262 264 264 264 264 265 265 264 264 266 267
256 256 255 253 252 253 253 252 251 249 247 246 245 243 243 244 244 243 243 244 244 244 245 245 245 246 248 249 249 251 252 252 253 254 256 258 260 261 262 263 263 263 263 264 265 266 265 265 266
257 256 255 254 253 253 254 254 253 251 249 248 247 245 243 243 243 242 243 243 244 245 246 247 247 248 249 250 250 251 252 252 253 255 257 260 261 262 262 263 264 264 263 264 264 267 268 266 266
256 256 256 255 254 253 254 255 255 252 249 248 248 246 245 244 244 242 243 244 244 245 246 247 248 249 250 252 252 252 252 252 254 256 258 260 261 262 263 264 264 265 264 264 266 267 269 269 268
257 256 255 256 257 255 254 254 256 254 251 249 249 248 247 245 243 242 242 243 244 244 246 247 248 249 251 252 252 252 252 252 254 256 258 260 261 262 263 264 265 265 266 265 265 267 267 268 268
259 258 256 257 258 257 256 255 255 255 252 250 251 249 246 245 242 242 242 243 243 244 246 248 249 250 250 252 252 253 253 253 255 257 259 261 262 263 263 264 265 266 266 266 266 266 267 268 269
260 260 258 258 259 258 257 257 255 253 251 250 250 250 247 244 243 242 242 243 243 244 245 247 249 250 251 252 253 255 255 254 255 258 259 261 262 263 262 263 264 266 268 268 268 268 267 268 269
261 260 260 260 260 260 259 259 256 253 251 251 252 250 247 244 243 242 243 243 244 245 246 247 247 249 251 252 254 255 255 255 256 258 260 261 263 264 264 263 264 266 268 269 269 269 269 269 269
264 261 261 261 260 262 262 261 257 255 252 253 252 250 247 244 243 243 243 245 245 245 246 247 248 249 250 252 254 254 255 256 256 257 259 261 263 264 265 265 265 266 268 269 270 270 270 270 270
265 263 261 261 262 262 262 261 258 256 255 255 252 250 247 245 244 243 244 245 246 246 246 247 248 249 250 252 254 255 256 257 257 258 259 261 262 263 264 266 267 267 268 269 269 270 271 271 271
266 265 263 262 262 262 262 262 259 256 255 253 252 250 248 246 244 245 244 245 246 247 247 248 249 250 251 252 254 256 257 258 259 259 259 260 261 263 265 266 268 268 268 269 270 271 270 272 272
265 266 265 263 261 262 262 260 258 257 256 253 252 250 248 247 246 246 245 244 245 246 247 248 248 250 251 252 254 255 256 258 259 259 259 260 262 263 265 267 268 268 270 271 271 272 272 271 271
266 266 266 264 261 261 262 262 259 258 257 254 252 250 250 249 248 247 248 247 245 245 246 247 248 250 251 253 255 255 257 258 259 260 260 261 263 264 265 266 268 269 270 271 272 272 272 271 272
267 265 264 263 262 263 263 265 262 260 257 256 255 252 251 250 249 248 248 247 245 245 246 247 249 251 252 253 255 255 257 257 258 261 262 262 263 264 266 267 268 269 270 271 271 272 273 273 273
269 267 266 265 264 264 263 266 265 262 260 260 258 257 255 253 252 250 249 249 246 245 247 248 250 251 252 253 255 255 257 258 260 261 263 264 265 265 266 267 268 270 271 270 270 271 272 272 272
266 266 266 266 265 266 266 266 267 265 264 263 261 260 257 256 254 252 251 252 249 248 248 249 250 252 253 254 255 256 257 259 261 262 264 266 266 267 268 268 269 270 271 270 270 271 272 272 272
263 264 268 270 270 271 269 267 268 267 267 264 261 260 259 259 257 255 255 254 252 250 250 251 251 253 253 254 255 257 257 259 261 263 265 267 268 268 269 270 271 271 272 272 271 271 272 272 272
263 263 268 271 272 273 269 268 268 267 266 264 263 260 259 259 260 260 258 258 256 253 252 253 253 253 253 254 255 258 258 260 262 264 266 267 268 269 270 271 271 271 272 273 273 273 273 272 271
263 264 268 270 271 271 271 270 272 269 266 266 264 262 262 262 263 263 262 262 260 257 254 253 254 254 253 253 255 258 260 262 264 266 266 267 268 270 271 270 271 272 274 274 274 274 275 274 271
263 263 267 268 268 270 272 272 276 273 269 266 265 264 266 266 265 266 265 265 262 260 257 255 254 254 253 254 256 259 260 263 266 267 267 268 269 271 272 271 272 273 274 275 275 275 274 273 272
263 263 266 268 268 269 271 274 276 274 273 270 267 267 268 268 268 268 267 266 264 262 259 258 257 256 256 256 257 259 260 263 265 266 268 269 270 271 271 272 272 272 274 275 275 275 274 273 272
Height
5813 5814 5815 5817 5819 5821 5823 5826 5828 5830 5832 5834 5836 5838 5839 5840 5842 5845 5845 5846 5848 5849 5851 5852 5853 5854 5855 5856 5857 5857 5858 5858 5859 5859 5860 5860 5860 5861 5861 5861 5861 5861 5861 5862 5862 5862 5862 5863 5863
5807 5808 5810 5811 5813 5816 5820 5822 5823 5825 5828 5830 5832 5833 5835 5836 5837 5839 5841 5843 5845 5847 5848 5850 5851 5852 5853 5854 5855 5856 5856 5857 5857 5858 5858 5859 5859 5859 5859 5860 5860 5860 5860 5860 5861 5861 5861 5861 5862
5801 5803 5805 5806 5808 5812 5815 5817 5818 5819 5822 5825 5827 5829 5831 5833 5834 5835 5838 5840 5842 5844 5846 5847 5848 5850 5851 5852 5853 5854 5855 5855 5855 5856 5856 5857 5857 5857 5858 5858 5858 5858 5859 5859 5859 5860 5860 5860 5860
5797 5798 5800 5802 5804 5807 5809 5811 5812 5814 5817 5819 5822 5824 5826 5828 5830 5832 5834 5836 5839 5840 5842 5844 5845 5847 5848 5849 5850 5851 5852 5853 5853 5854 5854 5855 5855 5855 5856 5856 5856 5857 5857 5857 5857 5858 5858 5858 5859
5791 5793 5794 5796 5799 5802 5803 5805 5807 5809 5811 5814 5817 5819 5821 5823 5826 5828 5830 5832 5834 5837 5839 5840 5842 5844 5845 5846 5847 5848 5849 5850 5851 5851 5852 5852 5852 5853 5853 5854 5854 5854 5855 5855 5855 5856 5856 5857 5857
5786 5787 5789 5790 5793 5795 5797 5799 5801 5803 5806 5808 5811 5813 5816 5818 5821 5823 5825 5827 5830 5832 5835 5836 5838 5840 5841 5843 5844 5845 5846 5847 5847 5848 5848 5849 5849 5850 5850 5851 5851 5852 5852 5852 5853 5853 5854 5854 5854
5780 5781 5782 5785 5786 5789 5792 5793 5795 5797 5799 5802 5805 5807 5810 5813 5815 5818 5820 5823 5825 5828 5830 5832 5834 5835 5837 5838 5840 5841 5842 5843 5844 5844 5845 5846 5846 5847 5847 5847 5848 5848 5849 5849 5850 5850 5851 5851 5851
5773 5775 5776 5778 5779 5782 5785 5786 5788 5790 5793 5796 5798 5801 5804 5808 5810 5812 5815 5817 5820 5822 5825 5827 5829 5831 5832 5833 5835 5837 5838 5839 5840 5841 5841 5842 5843 5843 5844 5844 5845 5845 5845 5846 5847 5847 5848 5848 5848
5766 5769 5770 5772 5773 5775 5777 5779 5781 5782 5786 5789 5791 5794 5798 5801 5804 5807 5809 5812 5815 5817 5819 5822 5824 5826 5827 5828 5830 5832 5833 5834 5835 5836 5837 5838 5839 5840 5840 5840 5841 5841 5842 5842 5843 5843 5844 5844 5845
5760 5762 5764 5765 5766 5766 5769 5771 5773 5775 5778 5781 5784 5786 5790 5793 5797 5801 5804 5806 5809 5811 5814 5816 5818 5820 5822 5823 5825 5827 5828 5829 5831 5832 5833 5834 5835 5835 5836 5836 5837 5837 5838 5838 5839 5839 5840 5840 5841
5753 5755 5756 5757 5758 5759 5761 5763 5765 5767 5770 5774 5776 5779 5782 5786 5789 5794 5797 5800 5802 5805 5808 5810 5812 5814 5816 5818 5820 5821 5823 5824 5825 5827 5828 5829 5830 5831 5831 5832 5832 5833 5834 5834 5835 5835 5836 5836 5836
5747 5748 5749 5750 5750 5752 5754 5756 5758 5759 5762 5765 5768 5771 5774 5778 5781 5786 5790 5793 5796 5799 5801 5803 5805 5808 5810 5812 5814 5815 5817 5818 5820 5821 5822 5823 5824 5825 5826 5827 5827 5828 5828 5829 5829 5830 5830 5831 5831
5739 5741 5741 5743 5743 5745 5747 5748 5750 5752 5754 5756 5759 5762 5766 5769 5774 5778 5782 5785 5789 5792 5795 5797 5799 5801 5803 5805 5807 5809 5810 5812 5813 5815 5816 5817 5818 5820 5820 5821 5821 5822 5822 5823 5823 5824 5825 5825 5825
5732 5733 5734 5735 5736 5738 5739 5741 5742 5744 5746 5749 5751 5754 5757 5761 5766 5770 5774 5778 5782 5785 5788 5790 5792 5794 5796 5798 5800 5801 5803 5805 5807 5808 5810 5811 5812 5813 5814 5814 5815 5815 5816 5816 5817 5818 5818 5819 5819
5725 5726 5727 5728 5729 5730 5731 5733 5735 5737 5738 5740 5743 5746 5749 5753 5757 5761 5766 5770 5774 5777 5780 5783 5785 5787 5789 5791 5793 5794 5796 5798 5800 5801 5802 5803 5804 5805 5806 5807 5808 5808 5808 5809 5809 5810 5811 5812 5812
5718 5719 5720 5722 5722 5722 5724 5725 5727 5728 5730 5732 5734 5737 5740 5743 5748 5753 5758 5762 5766 5769 5772 5775 5778 5780 5782 5784 5785 5787 5788 5790 5792 5793 5795 5796 5797 5798 5798 5799 5799 5800 5800 5800 5801 5802 5803 5803 5804
5712 5712 5713 5715 5715 5715 5716 5717 5719 5720 5722 5724 5726 5728 5731 5735 5740 5745 5749 5754 5757 5761 5764 5767 5769 5772 5774 5776 5777 5779 5781 5782 5784 5785 5787 5788 5789 5789 5790 5791 5791 5791 5791 5792 5792 5793 5794 5794 5795
5706 5706 5706 5707 5708 5708 5708 5709 5711 5713 5714 5716 5718 5721 5723 5727 5732 5736 5741 5745 5749 5752 5755 5758 5761 5763 5766 5768 5769 5771 5773 5774 5776 5777 5778 5780 5780 5781 5781 5782 5782 5782 5782 5783 5783 5783 5784 5785 5785
5699 5699 5700 5700 5700 5701 5701 5702 5704 5705 5707 5709 5711 5713 5716 5720 5724 5728 5732 5736 5740 5743 5747 5749 5752 5754 5757 5759 5761 5763 5765 5766 5767 5769 5770 5770 5771 5772 5773 5773 5773 5773 5773 5774 5774 5774 5775 5775 5775
5692 5693 5693 5694 5694 5694 5695 5696 5697 5698 5700 5702 5704 5706 5709 5712 5716 5719 5722 5727 5731 5734 5737 5740 5743 5746 5748 5750 5752 5754 5756 5757 5759 5760 5761 5761 5762 5763 5763 5764 5764 5764 5764 5764 5764 5765 5765 5765 5765
5687 5687 5687 5687 5688 5687 5688 5690 5692 5693 5694 5695 5697 5699 5702 5704 5708 5711 5713 5717 5721 5725 5728 5731 5734 5737 5739 5741 5743 5745 5746 5748 5749 5750 5751 5753 5754 5754 5754 5755 5755 5755 5755 5755 5755 5755 5755 5755 5755
5681 5682 5681 5681 5681 5682 5683 5683 5687 5687 5688 5689 5690 5692 5694 5697 5700 5703 5705 5709 5712 5716 5719 5722 5725 5727 5730 5732 5734 5735 5737 5738 5740 5741 5742 5743 5744 5745 5745 5745 5745 5745 5745 5746 5746 5745 5745 5745 5745
5676 5676 5675 5675 5674 5676 5677 5676 5681 5681 5682 5683 5684 5686 5687 5689 5691 5694 5697 5700 5703 5706 5709 5713 5716 5718 5720 5722 5724 5725 5727 5729 5730 5731 5732 5733 5734 5735 5735 5735 5735 5735 5735 5735 5735 5735 5735 5734 5734
5670 5670 5670 5669 5669 5670 5673 5671 5673 5674 5675 5676 5677 5679 5680 5682 5683 5685 5689 5691 5694 5697 5700 5703 5706 5708 5711 5713 5714 5716 5718 5719 5720 5721 5722 5723 5724 5724 5725 5725 5725 5725 5725 5725 5725 5724 5724 5723 5723
5664 5665 5665 5663 5663 5665 5667 5665 5667 5669 5669 5670 5671 5672 5673 5675 5676 5678 5680 5683 5685 5687 5690 5693 5696 5698 5701 5703 5704 5706 5707 5709 5709 5711 5712 5712 5713 5714 5714 5714 5714 5714 5714 5713 5713 5713 5712 5712 5711
5659 5659 5660 5659 5659 5660 5660 5660 5663 5663 5663 5663 5664 5665 5666 5667 5668 5670 5672 5673 5675 5677 5680 5682 5685 5687 5690 5692 5694 5695 5697 5698 5698 5699 5700 5701 5702 5703 5702 5702 5702 5701 5701 5701 5701 5700 5700 5700 5699
5653 5654 5655 5655 5654 5654 5654 5655 5657 5657 5657 5657 5657 5658 5659 5660 5661 5662 5663 5664 5665 5667 5669 5671 5674 5676 5678 5681 5683 5684 5686 5686 5687 5688 5688 5689 5690 5690 5690 5690 5689 5689 5689 5688 5688 5688 5687 5687 5687
5649 5649 5650 5649 5648 5648 5649 5649 5651 5651 5651 5650 5650 5651 5652 5653 5653 5654 5654 5655 5656 5657 5659 5660 5663 5665 5668 5670 5671 5673 5674 5675 5675 5676 5676 5676 5677 5677 5676 5677 5676 5676 5676 5675 5675 5675 5674 5674 5674
5644 5645 5644 5644 5644 5643 5643 5647 5646 5645 5645 5644 5644 5644 5645 5645 5645 5646 5646 5646 5646 5647 5648 5650 5652 5654 5656 5658 5660 5661 5663 5663 5664 5663 5663 5663 5664 5664 5663 5663 5663 5663 5662 5662 5661 5661 5660 5660 5660
5638 5639 5639 5640 5639 5638 5638 5642 5640 5639 5639 5639 5638 5638 5638 5638 5638 5638 5637 5637 5637 5638 5638 5640 5641 5643 5645 5646 5648 5649 5650 5651 5652 5651 5651 5650 5650 5650 5649 5649 5649 5649 5649 5648 5647 5647 5646 5646 5646